{"data":{"norad_id":61553,"epoch":"2026-09-22T19:57:03.673728Z","epoch_age_seconds":95977,"freshness":"FRESH","line1":"1 61553U 24185B   26265.83129252  .00000400  00000+0  22250-3 0  9990","line2":"2 61553  88.9855  45.9991 0006877 141.3372 218.8305 14.09074732109498","mean_motion":14.09074732,"eccentricity":0.0006877,"inclination_deg":88.9855,"raan_deg":45.9991,"arg_perigee_deg":141.3372,"mean_anomaly_deg":218.8305,"bstar":0.0002225,"rev_number":10949,"period_min":102.19472163525,"perigee_km":857.56028962162,"apogee_km":867.51911635891,"semimajor_km":7240.6767029903,"source":"CELESTRAK","updated_at":"2026-09-23T09:00:20.903007Z"}}